Regional Weather Roundup
Issued by NWS Raleigh/Durham, NC

Home | Current Version | Previous Version | Text Only | Print | Product List | Glossary On
Versions: 1 2 3 4 5 6 7 8 9 10 11 12 13 14 15 16 17 18 19 20 21 22 23 24 25 26 27 28 29 30 31 32 33 34 35 36 37 38 39 40 41 42 43 44 45 46 47 48 49 50
000
ASUS42 KRAH 310210
RWRRAH
NORTH CAROLINA WEATHER ROUNDUP
NATIONAL WEATHER SERVICE RALEIGH NC
1000 PM EDT SAT AUG 30 2014

NOTE: "FAIR" INDICATES FEW OR NO CLOUDS BELOW 12,000 FEET WITH NO
SIGNIFICANT WEATHER AND/OR OBSTRUCTIONS TO VISIBILITY.

NCZ001-053-055-056-065-067-310300-
WESTERN NORTH CAROLINA

CITY           SKY/WX    TMP DP  RH WIND       PRES   REMARKS
ASHEVILLE      NOT AVBL
JEFFERSON      NOT AVBL
HICKORY        NOT AVBL
RUTHERFORDTON  NOT AVBL
MOUNT AIRY     NOT AVBL
BOONE          NOT AVBL
$$

NCZ021-022-025-041-071-084-088-310300-
CENTRAL NORTH CAROLINA

CITY           SKY/WX    TMP DP  RH WIND       PRES   REMARKS
CHARLOTTE      NOT AVBL
GREENSBORO     PTCLDY    80  70  71 SE10      30.16R
WINSTON-SALEM  CLEAR     77  68  73 CALM      30.17R
RALEIGH-DURHAM PTCLDY    79  71  76 SE6       30.16R
FORT BRAGG       N/A     81  73  76 S6        30.16R
FAYETTEVILLE   CLEAR     79  73  82 S8        30.15R
BURLINGTON     CLEAR     78  69  73 SE3       30.16R
LAURINBURG     CLOUDY    79  73  82 S5        30.16R
$$

NCZ011-015-027-028-043-044-047-080-103-310300-
NORTHEASTERN NORTH CAROLINA

CITY           SKY/WX    TMP DP  RH WIND       PRES   REMARKS
ROCKY MT-WILSO MOCLDY    75  72  90 CALM      30.16R
GREENVILLE     CLEAR     79  73  83 S6        30.18R
WASHINGTON     CLEAR     78  73  83 S5        30.18R
ELIZABETH CITY NOT AVBL
MANTEO         CLEAR     78  74  86 S6        30.18R
CAPE HATTERAS  NOT AVBL
$$

NCZ078-087-090-091-093-098-101-310300-
SOUTHEASTERN NORTH CAROLINA

CITY           SKY/WX    TMP DP  RH WIND       PRES   REMARKS
LUMBERTON      MOCLDY    78  74  87 CALM      30.16R
GOLDSBORO      CLOUDY    78  78  98 SE7       30.15R
KENANSVILLE    CLEAR     73  71  91 CALM      30.18R
NEW BERN       CLEAR     76  72  87 CALM      30.19R
CHERRY POINT   CLEAR     76  73  91 SE5       30.19R
BEAUFORT       CLEAR     80  73  79 SE5       30.18R
JACKSONVILLE   CLEAR     78  73  84 CALM      30.17R
WILMINGTON     CLEAR     77  71  82 CALM      30.17R
$$




USA.gov is the U.S. government's official web portal to all federal, state and local government web resources and services.